DW8961 Weather Reports


time (UTC)temp
C
wind
direction
speed
KPH
gust
KPH
rain 1hr
cm
rain 24hr
cm
rain mn
cm
humidity
%
barometer
mb
20260503193016 26 0.0 0.0 0.00 0.00 0.00 50 1012.6
20260503192036 25 0.0 0.0 0.00 0.00 0.00 51 1012.7
20260503191016 25 0.0 0.0 0.00 0.00 0.00 51 1012.9
20260503190016 25 0.0 0.0 0.00 0.00 0.00 53 1013.0
20260503185017 24 0.0 0.0 0.00 0.00 0.00 53 1013.1
20260503184016 24 0.0 0.0 0.00 0.00 0.00 54 1013.1
20260503183037 23 0.0 0.0 0.00 0.00 0.00 58 1013.2
20260503182016 22 0.0 0.0 0.00 0.00 0.00 55 1013.2
20260503181016 22 0.0 0.0 0.00 0.00 0.00 57 1013.4
20260503180036 22 0.0 0.0 0.00 0.00 0.00 59 1013.4
20260503175016 22 0.0 0.0 0.00 0.00 0.00 60 1013.6
20260503174037 21 0.0 0.0 0.00 0.00 0.00 61 1013.5
20260503173038 21 0.0 0.0 0.00 0.00 0.00 62 1013.5
20260503172037 20 0.0 0.0 0.00 0.00 0.00 64 1013.6
20260503171016 20 0.0 0.0 0.00 0.00 0.00 67 1013.6
20260503131016 12 0.0 0.0 0.00 0.00 0.00 88 1013.5
20260503081015 14 0.0 0.0 0.00 0.00 0.00 83 1014.1
20260503072036 15 0.0 0.0 0.00 0.00 0.00 82 1014.1
20260503071016 15 0.0 0.0 0.00 0.00 0.00 81 1014.1
20260503055037 17 0.0 0.0 0.00 0.00 0.00 73 1013.7
20260503054036 17 0.0 0.0 0.00 0.00 0.00 72 1013.7
20260503053016 17 0.0 0.0 0.00 0.00 0.00 71 1013.8
20260503052016 17 0.0 0.0 0.00 0.00 0.00 70 1013.7
20260503051016 18 0.0 1.6 0.00 0.00 0.00 68 1013.7
20260503050016 18 0.0 0.0 0.00 0.00 0.00 67 1013.6
20260503045056 18 0.0 3.2 0.00 0.00 0.00 65 1013.5
20260503044016 18 0.0 3.2 0.00 0.00 0.00 65 1013.4
20260503043017 18 0.0 1.6 0.00 0.00 0.00 64 1013.4
20260503042016 19 0.0 3.2 0.00 0.00 0.00 64 1013.2
20260503041017 19 0 1.6 4.8 0.00 0.00 0.00 63 1013.1
20260503040016 20 338 3.2 6.4 0.00 0.00 0.00 62 1012.9
20260503035016 20 338 4.8 9.7 0.00 0.00 0.00 61 1012.8
20260503034016 20 338 6.4 9.7 0.00 0.00 0.00 61 1012.6
20260503033036 20 338 6.4 11.3 0.00 0.00 0.00 60 1012.5
20260503032016 21 338 4.8 8.0 0.00 0.00 0.00 60 1012.4
20260503031016 21 338 4.8 11.3 0.00 0.00 0.00 59 1012.2
20260503030037 21 338 3.2 11.3 0.00 0.00 0.00 59 1012.2
20260503025016 21 338 1.6 6.4 0.00 0.00 0.00 58 1012.1
20260503024059 22 0.0 4.8 0.00 0.00 0.00 59 1012.1
20260503023036 22 338 1.6 4.8 0.00 0.00 0.00 57 1012.1
20260503022016 22 338 3.2 9.7 0.00 0.00 0.00 57 1012.1
20260503021016 22 0.0 3.2 0.00 0.00 0.00 56 1012.1
20260503020016 22 338 1.6 8.0 0.00 0.00 0.00 56 1012.1
20260503015016 22 338 3.2 9.7 0.00 0.00 0.00 55 1012.1
20260503014037 22 338 3.2 9.7 0.00 0.00 0.00 54 1012.1
20260503013036 22 338 6.4 12.9 0.00 0.00 0.00 54 1012.2
20260503012016 23 293 1.6 9.7 0.00 0.00 0.00 54 1012.2
20260503011016 23 315 1.6 8.0 0.00 0.00 0.00 53 1012.3
20260503010016 23 315 3.2 9.7 0.00 0.00 0.00 55 1012.4
20260503005016 23 315 1.6 12.9 0.00 0.00 0.00 53 1012.4
20260503004016 23 23 4.8 11.3 0.00 0.00 0.00 53 1012.5
20260503003036 23 270 3.2 9.7 0.00 0.00 0.00 53 1012.5
20260503002016 23 270 1.6 6.4 0.00 0.00 0.00 54 1012.6
20260503001016 23 270 3.2 8.0 0.00 0.00 0.00 56 1012.6
20260503000016 24 270 3.2 8.0 0.00 0.00 0.00 56 1012.7
20260502235017 24 270 3.2 8.0 0.00 0.00 0.00 58 1012.6
20260502234016 24 293 3.2 11.3 0.00 0.00 0.00 56 1012.9
20260502233016 24 270 3.2 12.9 0.00 0.00 0.00 57 1013.0
20260502232016 24 270 3.2 8.0 0.00 0.00 0.00 56 1013.2
20260502231017 24 338 9.7 14.5 0.00 0.00 0.00 55 1013.3
20260502230017 24 270 4.8 8.0 0.00 0.00 0.00 55 1013.5
20260502225017 24 270 4.8 11.3 0.00 0.00 0.00 57 1013.6
20260502224016 24 270 4.8 9.7 0.00 0.00 0.00 57 1013.8
20260502223016 23 293 4.8 11.3 0.00 0.00 0.00 58 1013.9
20260502222016 23 270 3.2 6.4 0.00 0.00 0.00 55 1014.0
20260502221016 24 270 4.8 11.3 0.00 0.00 0.00 57 1014.0
20260502220017 24 293 3.2 8.0 0.00 0.00 0.00 55 1014.2
20260502215016 24 270 6.4 11.3 0.00 0.00 0.00 57 1014.2
20260502214016 23 270 3.2 9.7 0.00 0.00 0.00 56 1014.3
20260502213017 23 270 3.2 6.4 0.00 0.00 0.00 57 1014.5
20260502212016 23 270 4.8 11.3 0.00 0.00 0.00 59 1014.6
20260502211017 23 270 4.8 8.0 0.00 0.00 0.00 58 1014.6
20260502210036 23 270 4.8 9.7 0.00 0.00 0.00 59 1014.7
20260502205017 22 270 4.8 9.7 0.00 0.00 0.00 59 1014.8
20260502204036 22 270 4.8 8.0 0.00 0.00 0.00 60 1014.9
20260502203016 22 270 3.2 6.4 0.00 0.00 0.00 62 1014.9
20260502202016 22 270 3.2 8.0 0.00 0.00 0.00 61 1015.1
20260502201016 22 270 3.2 6.4 0.00 0.00 0.00 60 1015.2
20260502200017 22 270 3.2 6.4 0.00 0.00 0.00 57 1015.3
20260502195017 22 270 3.2 6.4 0.00 0.00 0.00 58 1015.3
20260502194016 21 270 3.2 8.0 0.00 0.00 0.00 59 1015.4